Location: North Evanston
(42.0634°N, 87.6976°W)
Time: 19:51:45
(UTC+00:00)

Vanguard 3 - Pass Details

Date: 15 May 2026
Orbit: 507 x 3205 km, 33.4° (Epoch: 31 May)

Event Time Altitude Azimuth Distance (km) Brightness Sun altitude
Rises 22:59:12 0° 271° (W) 7,145 13.5 21.4°
Reaches altitude 10° 23:04:11 10° 268° (W) 6,116 13.7 20.5°
Maximum altitude 23:22:26 56° 198° (SSW) 3,012 10.3 17.1°
Drops below altitude 10° 23:34:50 10° 124° (SE) 4,306 10.3 14.9°
Sets 23:37:41 0° 120° (ESE) 4,990 10.6 14.3°
